O/OREOS (USA 219)

Last updated on Sun Jun 21 2026 00:03:20 GMT+0000 (Coordinated Universal Time)

1 37224U 10062C 26171.14280665 .00001640 00000+0 16050-3 0 9991 2 37224 71.9702 73.6446 0012657 56.8090 303.4293 14.93754530117087
UTC large
Height (km)
Speed (km/s)
/
Latitude / Longitude
Inclination (degrees)
Orbital Period (minutes)
Azimuth
Elevation
Range (km)
Doppler Factor

Next 0 passes for location: London (51.5072 / 0.1276)

No passes found over London.
O/OREOS (USA 219)